Location: State Line Observation Field
(36.5320°N, 77.5360°W)
Time: 17:21:35
(UTC-05:00)

LightSail 2 - Pass Details

Date: 18 November 2019
Orbit: 696 x 730 km, 24.0° (Epoch: 12 December)

Event Time Altitude Azimuth Distance (km) Brightness Sun altitude
Exits shadow 03:46:32 11° 144° (SE) 2,167 7.9 -36.9°
Drops below altitude 10° 03:46:40 10° 143° (SE) 2,203 8.0 -36.8°
Sets 03:49:47 0° 125° (SE) 3,127 9.1 -36.2°
